DL8FX-6 Weather Reports


time (UTC)temp
C
wind
direction
speed
KPH
gust
KPH
rain 1hr
cm
rain 24hr
cm
rain mn
cm
humidity
%
barometer
mb
20260507172038 11 0.0 0.0 0.00 0.00 0.00 78 1014.2
20260507171035 11 0.0 0.0 0.00 0.00 0.00 76 1014.3
20260507170031 11 0.0 0.0 0.00 0.00 0.00 74 1014.2
20260507165027 11 0.0 0.0 0.00 0.00 0.00 73 1014.0
20260507164022 11 0.0 3.2 0.00 0.00 0.00 73 1013.9
20260507163019 11 0.0 0.0 0.00 0.00 0.00 73 1013.8
20260507162114 11 0.0 0.0 0.00 0.00 0.00 73 1013.8
20260507161111 11 0.0 0.0 0.00 0.00 0.00 72 1013.8
20260507160106 12 0.0 0.0 0.00 0.00 0.00 72 1013.7
20260507155103 12 0.0 0.0 0.00 0.00 0.00 71 1013.7
20260507154118 12 0.0 0.0 0.00 0.00 0.00 68 1013.7
20260507153114 12 0.0 0.0 0.00 0.00 0.00 63 1013.6
20260507152050 13 0.0 0.0 0.00 0.00 0.00 65 1013.5
20260507151046 13 0.0 0.0 0.00 0.00 0.00 62 1013.4
20260507150042 13 68 1.6 8.0 0.00 0.00 0.00 62 1013.3
20260507145038 13 0.0 0.0 0.00 0.00 0.00 64 1013.3
20260507144034 13 0.0 0.0 0.00 0.00 0.00 65 1013.3
20260507143031 13 0.0 1.6 0.00 0.00 0.00 65 1013.3
20260507142047 13 0.0 0.0 0.00 0.00 0.00 69 1013.2
20260507141023 12 0.0 0.0 0.00 0.00 0.00 69 1013.2
20260507140019 12 0.0 0.0 0.00 0.00 0.00 68 1013.1
20260507135015 12 0.0 0.0 0.00 0.00 0.00 68 1013.2
20260507134111 12 0.0 0.0 0.00 0.00 0.00 70 1013.1
20260507133107 12 0.0 0.0 0.00 0.00 0.00 70 1013.1
20260507132104 12 0.0 0.0 0.00 0.00 0.00 67 1013.0
20260507131100 12 0.0 0.0 0.00 0.00 0.00 66 1013.0
20260507130055 12 42 1.6 6.4 0.00 0.00 0.00 66 1013.0
20260507125051 12 0.0 0.0 0.00 0.00 0.00 69 1012.8
20260507124047 12 0.0 0.0 0.00 0.00 0.00 67 1012.7
20260507123043 12 45 1.6 12.9 0.00 0.00 0.00 64 1012.7
20260507122040 13 0.0 0.0 0.00 0.00 0.00 66 1012.7
20260507121035 12 0.0 0.0 0.00 0.00 0.00 66 1012.7
20260507120031 12 0.0 0.0 0.00 0.00 0.00 66 1012.6
20260507115027 12 0.0 1.6 0.00 0.00 0.00 66 1012.6
20260507114023 12 45 0.0 4.8 0.00 0.00 0.00 69 1012.5
20260507113019 12 0 1.6 8.0 0.00 0.00 0.00 70 1012.6
20260507112116 12 0 0.0 6.4 0.00 0.00 0.00 71 1012.6
20260507111111 12 0.0 0.0 0.00 0.00 0.00 71 1012.6
20260507110107 11 0.0 0.0 0.00 0.00 0.00 72 1012.5
20260507105103 11 40 3.2 12.9 0.00 0.00 0.00 72 1012.4
20260507104059 10 45 0.0 6.4 0.00 0.00 0.00 72 1012.5
20260507103054 10 0 1.6 9.7 0.00 0.00 0.00 74 1012.5
20260507102050 10 45 1.6 6.4 0.00 0.00 0.00 73 1012.4
20260507101046 10 0 3.2 11.3 0.00 0.00 0.00 75 1012.4
20260507100042 10 90 1.6 11.3 0.00 0.00 0.00 78 1012.2
20260507095038 9 0.0 1.6 0.00 0.00 0.00 80 1012.2
20260507094033 9 0.0 0.0 0.00 0.03 0.00 81 1012.2
20260507093029 9 0.0 0.0 0.00 0.03 0.00 81 1012.0
20260507092025 9 54 1.6 8.0 0.00 0.05 0.00 82 1011.9
20260507091022 9 0.0 0.0 0.00 0.13 0.00 82 1011.8
20260507090018 8 0.0 0.0 0.00 0.15 0.00 82 1011.6
20260507085115 8 338 1.6 12.9 0.00 0.18 0.00 82 1011.5
20260507084131 8 0.0 0.0 0.00 0.20 0.00 81 1011.4
20260507083107 8 0.0 0.0 0.00 0.23 0.00 81 1011.3
20260507082104 9 0.0 0.0 0.00 0.28 0.00 80 1011.1
20260507081059 9 0.0 0.0 0.00 0.28 0.00 79 1011.1
20260507080055 9 0.0 0.0 0.00 0.30 0.00 78 1011.0
20260507075112 9 0 0.0 3.2 0.00 0.36 0.00 79 1010.9
20260507074047 8 0.0 0.0 0.00 0.38 0.00 79 1010.8
20260507073043 8 0.0 0.0 0.00 0.43 0.00 79 1010.6
20260507072039 8 90 1.6 6.4 0.00 0.48 0.00 80 1010.5
20260507071035 8 68 0.0 6.4 0.00 0.53 0.00 80 1010.5
20260507070031 8 31 3.2 12.9 0.00 0.56 0.00 81 1010.5
20260507065027 8 0.0 3.2 0.00 0.61 0.00 80 1010.4
20260507064043 8 0.0 0.0 0.00 0.61 0.00 81 1010.4
20260507063040 8 45 3.2 17.7 0.00 0.61 0.00 82 1010.2
20260507062016 8 0.0 0.0 0.00 0.61 0.00 82 1010.1
20260507061112 8 0.0 0.0 0.00 0.64 0.00 82 1010.0
20260507060148 8 0.0 0.0 0.00 0.64 0.00 82 1010.0
20260507055104 8 12 3.2 12.9 0.00 0.64 0.00 83 1009.9
20260507054100 8 0 0.0 3.2 0.00 0.64 0.00 84 1009.7
20260507053116 7 0 1.6 6.4 0.00 0.66 0.00 84 1009.6
20260507052052 7 0.0 0.0 0.00 0.66 0.00 84 1009.6
20260507051108 7 0.0 0.0 0.00 0.66 0.00 84 1009.5
20260507050044 7 0.0 0.0 0.00 0.66 0.00 84 1009.5
20260507045040 7 0.0 0.0 0.00 0.69 0.00 84 1009.2
20260507044035 7 0.0 0.0 0.00 0.71 0.00 84 1009.2
20260507043032 7 0.0 0.0 0.00 0.71 0.00 83 1009.2
20260507042028 7 356 6.4 11.3 0.00 0.71 0.00 84 1009.2
20260507041024 7 0.0 3.2 0.00 0.71 0.00 84 1009.0
20260507040041 7 0.0 1.6 0.00 0.76 0.00 85 1008.7
20260507035017 7 23 1.6 4.8 0.00 0.79 0.00 85 1008.7
20260507034113 7 45 0.0 4.8 0.00 0.79 0.00 86 1008.6
20260507033129 7 315 1.6 6.4 0.00 0.81 0.00 86 1008.6
20260507032126 7 120 3.2 8.0 0.00 0.84 0.00 86 1008.5
20260507031102 7 0.0 0.0 0.00 0.89 0.00 86 1008.5
20260507030058 7 0.0 0.0 0.00 0.97 0.00 86 1008.5
20260507025054 7 0.0 4.8 0.00 1.02 0.00 86 1008.4
20260507024111 7 0 1.6 11.3 0.00 1.04 0.00 86 1008.4
20260507023046 7 0.0 1.6 0.00 1.09 0.00 86 1008.4
20260507022042 7 0 3.2 11.3 0.00 1.12 0.00 87 1008.3
20260507021038 7 90 0.0 3.2 0.00 1.17 0.00 87 1008.3
20260507020034 7 289 1.6 6.4 0.00 1.19 0.00 88 1008.3
20260507015130 7 90 0.0 6.4 0.00 1.22 0.00 88 1008.4
20260507014026 7 0.0 1.6 0.00 1.27 0.00 88 1008.3
20260507013042 7 0.0 0.0 0.00 1.30 0.00 88 1008.1
20260507012017 7 0.0 0.0 0.00 1.32 0.00 88 1008.2
20260507011112 7 0.0 1.6 0.00 1.32 0.00 88 1008.1
20260507010129 7 0.0 0.0 0.00 1.35 0.00 88 1007.9
20260507005105 7 0.0 0.0 0.00 1.35 0.00 88 1007.8
20260507004102 7 0.0 0.0 0.00 1.35 0.00 88 1007.7
20260507003118 7 45 1.6 9.7 0.00 1.37 0.00 88 1007.6
20260507002053 7 0.0 0.0 0.00 1.37 0.00 88 1007.6
20260507001050 7 0.0 0.0 0.00 1.37 0.00 88 1007.6
20260507000046 7 0.0 0.0 0.00 1.37 0.00 88 1007.8
20260506235043 7 0.0 0.0 0.00 1.37 0.00 88 1007.7
20260506234038 7 0.0 0.0 0.00 1.37 0.00 88 1007.8
20260506233035 7 0.0 0.0 0.00 1.37 0.00 88 1007.8
20260506232051 8 315 3.2 12.9 0.00 1.37 0.00 89 1007.8
20260506231027 8 0.0 1.6 0.00 1.37 0.00 90 1007.5
20260506230022 8 135 0.0 6.4 0.00 1.37 0.00 90 1007.4
20260506225038 8 0.0 0.0 0.00 1.37 0.00 91 1007.3
20260506224135 8 0.0 0.0 0.00 1.37 0.00 91 1007.2
20260506223111 9 0.0 0.0 0.00 1.37 0.00 91 1007.2
20260506222107 9 0.0 0.0 0.00 1.37 0.00 92 1007.1
20260506221102 9 0.0 0.0 0.00 1.37 0.00 92 1007.1
20260506220119 10 0.0 0.0 0.00 1.37 0.00 93 1007.1
20260506215054 10 0 1.6 6.4 0.00 1.37 1.37 93 1007.0
20260506214050 10 0.0 0.0 0.00 1.37 1.37 94 1006.8
20260506213106 10 0.0 0.0 0.00 1.37 1.37 94 1006.8
20260506212041 10 0.0 0.0 0.00 1.37 1.37 94 1006.8
20260506211058 10 0.0 0.0 0.00 1.37 1.37 94 1006.7
20260506210033 10 0.0 0.0 0.00 1.37 1.37 94 1006.6
20260506205029 10 0.0 0.0 0.00 1.37 1.37 94 1006.6
20260506204025 10 0.0 0.0 0.00 1.37 1.37 94 1006.6
20260506203021 10 0.0 0.0 0.00 1.37 1.37 93 1006.6
20260506202018 10 0.0 0.0 0.00 1.37 1.37 93 1006.7
20260506201114 10 0.0 0.0 0.00 1.37 1.37 93 1006.6
20260506200110 10 0.0 0.0 0.00 1.37 1.37 93 1006.4
20260506195106 10 0.0 0.0 0.00 1.37 1.37 93 1006.3
20260506194102 10 0.0 0.0 0.00 1.37 1.37 92 1006.4
20260506193058 10 0.0 0.0 0.00 1.37 1.37 92 1006.2
20260506192054 11 0.0 0.0 0.00 1.37 1.37 92 1006.2
20260506191050 11 0.0 0.0 0.00 1.37 1.37 92 1006.0
20260506190046 11 0.0 0.0 0.00 1.37 1.37 91 1005.8
20260506185042 11 0.0 0.0 0.00 1.37 1.37 91 1005.7
20260506184038 11 0.0 0.0 0.00 1.37 1.37 90 1005.8
20260506183035 11 0.0 0.0 0.00 1.37 1.37 90 1005.6
20260506182031 11 0.0 0.0 0.00 1.37 1.37 90 1005.6
20260506181107 11 0.0 0.0 0.00 1.37 1.37 90 1005.4
20260506180023 11 0.0 0.0 0.00 1.37 1.37 90 1005.4
20260506175019 12 0.0 0.0 0.00 1.37 1.37 90 1005.3
20260506174115 12 0.0 0.0 0.00 1.37 1.37 90 1005.3
20260506173111 12 0.0 0.0 0.00 1.37 1.37 89 1005.5